Terminal Aerodrome Forecast
Issued by NWS Sioux Falls, SD

Home | Current Version | Previous Version | Text Only | Print | Product List | Glossary Off
Versions: 1 2 3 4 5 6 7 8 9 10 11 12 13 14 15 16 17 18 19 20

000
FTUS43 KFSD 241345 AAA
TAFFSD
TAF AMD
KFSD 241345Z 2414/2512 13015G21KT 4SM BR OVC008
      TEMPO 2415/2417 4SM -RA BKN012
     FM241700 14014G21KT 5SM -RA BR OVC018
     FM242300 13013KT P6SM -RA BKN015
     FM250100 14008KT P6SM SCT015
     FM251100 30014KT P6SM BKN020=

USA.gov is the U.S. government's official web portal to all federal, state and local government web resources and services.